Regional Weather Roundup
Issued by NWS Portland, ME

Home | Current Version | Previous Version | Text Only | Print | Product List | Glossary On
Versions: 1 2 3 4 5 6 7 8 9 10 11 12 13 14 15 16 17 18 19 20 21 22 23 24 25 26 27 28 29 30 31 32 33 34 35 36 37 38 39 40 41 42 43 44 45 46 47 48 49 50
000
ASUS41 KGYX 301310
RWRGYX
WEATHER ROUNDUP FOR MAINE AND NEW HAMPSHIRE
NATIONAL WEATHER SERVICE GRAY ME
900 AM EDT THU OCT 30 2014

MEZ002-005-006-010-012-015-018-020-021-024-026-027-029-301400-
MAINE

CITY           SKY/WX    TMP DP  RH WIND       PRES   REMARKS
PORTLAND       PTSUNNY   45  40  82 NW7       29.91R
SANFORD        PTSUNNY   45  36  70 SW7       29.91S
BAR HARBOR     SUNNY     46  45  93 SW3       29.88R
WISCASSET      SUNNY     44  43  96 CALM      29.91S
ROCKLAND       SUNNY     45  43  93 CALM      29.88S
FRYEBURG       CLOUDY    42  38  85 CALM      29.91R
LEWISTONAUBURN CLOUDY    37  36  93 CALM      29.90R
AUGUSTA        CLOUDY    45  41  86 VRB3      29.89R
WATERVILLE     CLOUDY    39  36  87 SW5       29.86R
BANGOR         MOSUNNY   44  40  85 CALM      29.87S
GREENVILLE       N/A     43  38  82 CALM      29.82R
MILLINOCKET    SUNNY     46  40  79 CALM      29.85R
HOULTON        SUNNY     44  38  79 W6        29.81R
PRESQUE ISLE   SUNNY     43  36  75 W5        29.80R
FRENCHVILLE    SUNNY     40  31  70 NW9       29.78R
CARIBOU        SUNNY     42  37  82 W6        29.79R
$$

NHZ002-005-008-009-011-012-014-301400-
NEW HAMPSHIRE

CITY           SKY/WX    TMP DP  RH WIND       PRES   REMARKS
PORTSMOUTH     PTSUNNY   47  40  77 W8        29.91S
ROCHESTER      CLOUDY    43  38  82 CALM      29.92R
NASHUA         CLOUDY    42  41  97 CALM      29.94S
MANCHESTER     PTSUNNY   42  36  79 CALM      29.92S
CONCORD        CLOUDY    36  35  96 N3        29.94R
LACONIA        CLOUDY    43  39  87 CALM      29.91R
PLYMOUTH       CLOUDY    39  39 100 CALM      29.93R
BERLIN         CLOUDY    40  39  97 CALM      29.89R
WHITEFIELD     CLOUDY    40  38  93 CALM      29.91R
JAFFREY        CLOUDY    39  38  96 S6        29.94R
LEBANON        CLOUDY    43  39  86 CALM      29.93R
MT WASHINGTON  FOG       25  25 100 W31         N/A  VSB 0   WCI   8
$$

VTZ005-007-008-301400-
VERMONT

CITY           SKY/WX    TMP DP  RH WIND       PRES   REMARKS
ST JOHNSBURY     N/A     41  39  93 MISG      29.91R
MONTPELIER     CLOUDY    42  39  89 NW3       29.96R
BURLINGTON     PTSUNNY   47  38  71 N10       29.96R
$$

MAZ007-012-024-CTZ003-RIZ002-NYZ038-NYZ072-301400-
SOUTHERN NEW ENGLAND AND NY

CITY           SKY/WX    TMP DP  RH WIND       PRES   REMARKS
BOSTON         MOSUNNY   50  40  68 W13       29.94R
WORCESTER      CLOUDY    46  38  73 W12       29.94R
NANTUCKET      MOSUNNY   54  41  61 NW10      29.94R
PROVIDENCE     MOSUNNY   50  40  68 W6        29.96R
HARTFORD       PTSUNNY   45  41  86 S3        29.97R
ALBANY         PTSUNNY   49  39  68 W8        29.99R
NEW YORK CITY  MOSUNNY   53  43  68 NW10      29.99R
$$

ANZ081-ANZ082-ANZ150-NHZ014-MEZ023>029-301400-
COASTAL MARINE OBSERVATIONS

STATION/POSITION TIME  TEMP    WIND        PRES    WAVE
                       AIR SEA DIR/SP/G            HT/PER
                 (UTC) (F)     (DEG/KT/KT) (MB)    (FT/S)
MOUNT DESERT ROC 1300   51                 1011.5R
MATINICUS ROCK   1300          300/ 12/ 13 1011.5R
PORTLAND WX BUOY 1250   47 53  330/  4/  6 1012.6R   1/ 6
WELLS            1200   45 51  290/  7/ 11 1011.6R
ISLE OF SHOALS   1300   48     280/ 14/ 16 1012.3R
JEFFREYS LEDGE   1221      54                N/A     2/ 3
CASHES LEDGE BUO 1250   53 55  280/ 10/ 12 1011.9R   2/ 6
$$

.............KEY..............
   WCI - WIND CHILL
   TC  - TEMPERATURE IN CELSIUS
   VSB - VISIBILITY IN MILES
   HX  - HEAT INDEX
   FAIR- INDICATES FEW OR NO CLOUDS BELOW 12,000 FT, WITH NO
         SIGNIFICANT WEATHER AND/OR OBSTRUCTIONS TO VISIBILITY.





USA.gov is the U.S. government's official web portal to all federal, state and local government web resources and services.